Location: Bow
(51.5261°N, 0.0167°W)
Time: 22:24:05
(UTC+00:00)

Landsat 7 - Pass Details

Date: 18 September 2020
Orbit: 701 x 703 km, 98.1° (Epoch: 21 October)

Event Time Altitude Azimuth Distance (km) Brightness Sun altitude
Exits shadow 21:04:38 79° 251° (WSW) 724 3.8 -26.1°
Maximum altitude 21:04:39 79° 256° (WSW) 724 3.8 -26.1°
Drops below altitude 10° 21:09:27 10° 344° (NNW) 2,184 7.1 -26.7°
Sets 21:11:44 0° 345° (NNW) 3,107 8.0 -26.9°
